TimeMDT,TemperatureF,Dew PointF,Humidity,Sea Level PressureIn,VisibilityMPH,Wind Direction,Wind SpeedMPH,Gust SpeedMPH,PrecipitationIn,Events,Conditions,WindDirDegrees,DateUTC
12:51 AM,27.0,18.0,69,30.28,9.0,NNW,4.6,-,N/A,,Clear,330,2012-10-06 06:51:00
1:51 AM,35.1,16.0,46,30.24,7.0,North,4.6,-,N/A,,Clear,10,2012-10-06 07:51:00
2:51 AM,26.1,18.0,71,30.28,9.0,Calm,Calm,-,N/A,,Clear,0,2012-10-06 08:51:00
3:51 AM,26.1,15.1,63,30.27,8.0,Calm,Calm,-,N/A,,Clear,0,2012-10-06 09:51:00
4:51 AM,23.0,12.9,65,30.28,8.0,Calm,Calm,-,N/A,,Clear,0,2012-10-06 10:51:00
6:51 AM,21.9,12.0,66,30.30,8.0,Calm,Calm,-,N/A,,Clear,0,2012-10-06 12:51:00
7:51 AM,19.9,12.9,74,30.33,7.0,Calm,Calm,-,N/A,,Clear,0,2012-10-06 13:51:00
8:51 AM,24.1,14.0,65,30.33,7.0,Calm,Calm,-,N/A,,Clear,0,2012-10-06 14:51:00
9:51 AM,34.0,17.1,50,30.31,7.0,SW,3.5,-,N/A,,Clear,230,2012-10-06 15:51:00
10:51 AM,41.0,14.0,33,30.31,7.0,Calm,Calm,-,N/A,,Clear,0,2012-10-06 16:51:00
11:51 AM,45.0,12.0,26,30.28,8.0,West,5.8,-,N/A,,Clear,280,2012-10-06 17:51:00
12:51 PM,46.9,9.0,21,30.30,9.0,West,6.9,-,N/A,,Clear,270,2012-10-06 18:51:00
2:51 PM,52.0,10.9,19,30.24,10.0,Variable,6.9,-,N/A,,Clear,0,2012-10-06 20:51:00
5:51 PM,53.1,9.0,17,30.21,8.0,WNW,6.9,-,N/A,,Clear,290,2012-10-06 23:51:00
6:51 PM,50.0,8.1,18,30.22,7.0,NNW,3.5,-,N/A,,Clear,330,2012-10-07 00:51:00
7:51 PM,46.9,9.0,21,30.23,8.0,Variable,6.9,-,N/A,,Clear,0,2012-10-07 01:51:00
8:51 PM,43.0,14.0,31,30.25,8.0,NNE,4.6,-,N/A,,Clear,20,2012-10-07 02:51:00
9:51 PM,35.1,12.9,40,30.24,8.0,Calm,Calm,-,N/A,,Clear,0,2012-10-07 03:51:00
10:51 PM,36.0,15.1,43,30.22,7.0,Calm,Calm,-,N/A,,Clear,0,2012-10-07 04:51:00
11:51 PM,32.0,15.1,50,30.23,8.0,Calm,Calm,-,N/A,,Clear,0,2012-10-07 05:51:00